S51BR Weather Reports


time (UTC)temp
F
wind
direction
speed
knots
gust
knots
rain 1hr
in
rain 24hr
in
rain mn
in
humidity
%
barometer
mb
20260506205008 56 276 2.6 8.7 0.00 0.00 0.00 80 1011.9
20260506204525 56 319 0.9 4.3 0.00 0.00 0.00 80 1011.8
20260506204010 56 22 1.7 4.3 0.00 0.00 0.00 80 1011.7
20260506203514 56 124 0.0 0.9 0.00 0.00 0.00 80 1011.7
20260506203026 56 15 0.0 2.6 0.00 0.00 0.00 80 1011.7
20260506202514 56 17 0.9 2.6 0.00 0.00 0.00 80 1011.5
20260506202006 56 30 0.0 0.9 0.00 0.00 0.00 80 1011.4
20260506201514 55 30 0.0 0.9 0.00 0.00 0.00 81 1011.4
20260506201008 55 30 0.0 0.9 0.00 0.00 0.00 81 1011.4
20260506200506 55 29 0.0 1.7 0.00 0.00 0.00 80 1011.4
20260506200024 56 316 0.0 1.7 0.00 0.00 0.00 80 1011.3
20260506195507 55 11 0.0 0.9 0.00 0.00 0.00 80 1011.2
20260506195013 56 352 0.0 1.7 0.00 0.00 0.00 80 1011.2
20260506194520 56 43 0.0 1.7 0.00 0.00 0.00 80 1011.2
20260506194012 56 27 0.9 2.6 0.00 0.00 0.00 80 1011.2
20260506193511 56 30 0.0 2.6 0.00 0.00 0.00 80 1011.1
20260506193026 56 4 0.0 2.6 0.00 0.00 0.00 79 1011.1
20260506192510 56 197 0.0 2.6 0.00 0.00 0.00 79 1011.1
20260506192009 56 174 0.9 2.6 0.00 0.00 0.00 79 1011.1
20260506191524 56 254 0.9 2.6 0.00 0.00 0.00 79 1011.0
20260506191010 56 251 0.9 2.6 0.00 0.00 0.00 79 1011.1
20260506190507 56 309 0.9 1.7 0.00 0.00 0.00 79 1011.0
20260506190014 56 11 0.9 3.5 0.00 0.00 0.00 78 1011.0
20260506185504 56 20 0.0 3.5 0.00 0.00 0.00 78 1011.0
20260506185007 57 176 0.0 3.5 0.00 0.00 0.00 78 1010.9
20260506184518 57 260 0.0 3.5 0.00 0.00 0.00 77 1010.9
20260506184006 57 20 0.9 4.3 0.00 0.00 0.00 77 1010.8
20260506183507 57 302 1.7 4.3 0.00 0.00 0.00 76 1010.8
20260506183024 57 309 0.9 3.5 0.00 0.00 0.00 76 1010.7
20260506182508 58 313 1.7 4.3 0.00 0.00 0.00 76 1010.8
20260506182006 58 318 1.7 4.3 0.00 0.00 0.00 75 1010.8
20260506181507 58 59 1.7 4.3 0.00 0.00 0.00 75 1010.6
20260506181005 58 327 2.6 4.3 0.00 0.00 0.00 74 1010.6
20260506180504 59 326 1.7 4.3 0.00 0.00 0.00 73 1010.6
20260506180010 59 168 0.9 3.5 0.00 0.00 0.00 73 1010.5
20260506175505 59 323 1.7 3.5 0.00 0.00 0.00 72 1010.4
20260506175006 60 309 0.9 3.5 0.00 0.00 0.00 72 1010.5
20260506174516 60 232 0.9 5.2 0.00 0.00 0.00 71 1010.6
20260506174007 61 25 1.7 5.2 0.00 0.00 0.00 71 1010.5
20260506173507 61 314 0.9 3.5 0.00 0.00 0.00 70 1010.3
20260506173019 62 26 1.7 4.3 0.00 0.00 0.00 68 1010.3
20260506172506 62 24 1.7 5.2 0.00 0.00 0.00 67 1010.3
20260506172008 62 304 0.9 5.2 0.00 0.00 0.00 67 1010.4
20260506171522 62 248 1.7 3.5 0.00 0.00 0.00 66 1010.3
20260506171004 62 270 0.9 3.5 0.00 0.00 0.00 69 1010.3
20260506170507 62 360 0.9 2.6 0.00 0.00 0.00 69 1010.3
20260506170007 62 27 0.9 3.5 0.00 0.00 0.00 70 1010.2
20260506165505 61 26 0.0 3.5 0.00 0.00 0.00 71 1010.3
20260506165008 61 236 0.0 1.7 0.00 0.00 0.00 71 1010.3
20260506164510 61 187 0.0 1.7 0.00 0.00 0.00 71 1010.3
20260506164009 61 184 0.0 2.6 0.00 0.00 0.00 71 1010.3
20260506163511 61 50 0.9 2.6 0.00 0.00 0.00 70 1010.3
20260506163031 61 13 0.9 1.7 0.00 0.00 0.00 71 1010.5
20260506162507 61 6 0.0 0.9 0.00 0.00 0.00 70 1010.6
20260506162008 62 6 0.0 0.0 0.00 0.00 0.00 71 1010.6
20260506161520 61 6 0.0 0.9 0.00 0.00 0.00 71 1010.6
20260506161007 61 6 0.0 1.7 0.00 0.00 0.00 71 1010.6
20260506160512 62 6 0.0 1.7 0.00 0.00 0.00 70 1010.5
20260506160024 62 16 0.0 2.6 0.00 0.00 0.00 70 1010.6
20260506155505 62 14 1.7 2.6 0.00 0.00 0.00 70 1010.6
20260506155008 62 350 0.9 3.5 0.00 0.00 0.00 71 1010.6
20260506154509 61 5 0.9 3.5 0.00 0.00 0.00 71 1010.6
20260506154010 61 21 0.9 3.5 0.00 0.00 0.00 70 1010.7
20260506153507 61 2 0.9 4.3 0.00 0.00 0.00 71 1010.9
20260506153014 61 208 1.7 4.3 0.00 0.00 0.00 71 1010.9
20260506152506 61 356 1.7 6.1 0.00 0.00 0.00 71 1011.0
20260506152006 61 208 1.7 6.1 0.00 0.00 0.00 71 1011.0
20260506151518 61 302 0.9 5.2 0.00 0.00 0.00 71 1011.0
20260506151009 61 240 0.9 5.2 0.00 0.00 0.00 72 1011.0
20260506150509 61 262 1.7 4.3 0.00 0.00 0.00 73 1010.9
20260506150022 60 23 0.9 3.5 0.00 0.00 0.00 73 1010.9
20260506145511 60 319 0.9 3.5 0.00 0.00 0.00 73 1010.9
20260506145009 60 31 0.9 3.5 0.00 0.00 0.00 74 1010.9
20260506144524 60 20 1.7 3.5 0.00 0.00 0.00 73 1010.9
20260506144003 60 48 0.9 2.6 0.00 0.00 0.00 73 1011.0
20260506143504 60 6 0.9 2.6 0.00 0.00 0.00 73 1011.0
20260506143016 60 231 0.0 3.5 0.00 0.00 0.00 74 1011.0
20260506142506 60 208 1.7 3.5 0.00 0.00 0.00 72 1011.1
20260506142007 60 23 0.0 1.7 0.00 0.00 0.00 73 1011.0
20260506141515 61 186 0.9 5.2 0.00 0.00 0.00 72 1011.1
20260506141011 61 13 1.7 5.2 0.00 0.00 0.00 71 1011.2
20260506140511 60 333 0.9 6.1 0.00 0.00 0.00 73 1011.3
20260506140023 60 226 1.7 6.1 0.00 0.00 0.00 71 1011.2
20260506135510 60 304 1.7 5.2 0.00 0.00 0.00 72 1011.2
20260506135010 60 239 1.7 7.0 0.00 0.00 0.00 72 1011.4
20260506134525 60 23 1.7 7.0 0.00 0.00 0.00 71 1011.4
20260506134009 60 249 1.7 5.2 0.00 0.00 0.00 71 1011.4
20260506133508 60 27 2.6 9.6 0.00 0.00 0.00 71 1011.4
20260506133008 60 327 2.6 9.6 0.00 0.00 0.00 70 1011.4
20260506132504 60 358 2.6 9.6 0.00 0.00 0.00 70 1011.5
20260506132007 61 14 2.6 7.8 0.00 0.00 0.00 70 1011.5
20260506131518 61 238 1.7 7.0 0.00 0.00 0.00 71 1011.5
20260506131008 61 309 2.6 6.1 0.00 0.00 0.00 70 1011.6
20260506130508 61 319 2.6 5.2 0.00 0.00 0.00 70 1011.5
20260506130018 61 238 1.7 5.2 0.00 0.00 0.00 71 1011.5
20260506125509 60 85 1.7 6.1 0.00 0.00 0.00 71 1011.5
20260506125010 60 281 3.5 7.0 0.00 0.00 0.00 71 1011.6
20260506124520 60 321 2.6 7.0 0.00 0.00 0.00 71 1011.6
20260506124008 60 307 2.6 6.1 0.00 0.00 0.00 72 1011.6
20260506123510 60 326 1.7 5.2 0.00 0.00 0.00 73 1011.6
20260506123025 60 200 2.6 4.3 0.00 0.00 0.00 73 1011.8
20260506122510 59 220 1.7 4.3 0.00 0.00 0.00 75 1011.7
20260506122010 59 326 0.9 3.5 0.00 0.00 0.00 74 1011.9
20260506121509 59 321 0.9 5.2 0.00 0.00 0.00 74 1011.9
20260506121003 59 344 0.9 5.2 0.00 0.00 0.00 74 1012.0
20260506120503 59 199 1.7 3.5 0.00 0.00 0.00 74 1012.0
20260506120017 59 197 1.7 3.5 0.00 0.00 0.00 74 1012.0
20260506115509 59 319 0.9 3.5 0.00 0.00 0.00 75 1011.9
20260506115007 59 286 0.9 2.6 0.00 0.00 0.00 74 1012.0
20260506114521 59 321 0.9 2.6 0.00 0.00 0.00 73 1011.9
20260506114008 59 312 0.9 1.7 0.00 0.00 0.00 76 1012.1
20260506113511 59 160 0.0 3.5 0.00 0.00 0.00 76 1012.1
20260506113023 59 195 0.9 3.5 0.00 0.00 0.00 74 1012.2
20260506112512 59 328 0.9 5.2 0.00 0.00 0.00 74 1012.2
20260506112009 59 333 1.7 5.2 0.00 0.00 0.00 73 1012.3
20260506111529 59 356 0.9 5.2 0.00 0.00 0.00 73 1012.3
20260506111007 60 307 1.7 3.5 0.00 0.00 0.00 72 1012.2
20260506110507 60 357 1.7 3.5 0.00 0.00 0.00 72 1012.3
20260506110013 60 173 0.9 3.5 0.00 0.00 0.00 72 1012.4
20260506105509 60 197 1.7 3.5 0.00 0.00 0.00 71 1012.4
20260506105005 59 316 0.9 3.5 0.00 0.00 0.00 72 1012.4
20260506104518 59 181 1.7 3.5 0.00 0.00 0.00 72 1012.4
20260506104008 59 207 1.7 3.5 0.00 0.00 0.00 72 1012.5
20260506103508 59 292 0.9 5.2 0.00 0.00 0.00 73 1012.7
20260506103023 59 205 1.7 5.2 0.00 0.00 0.00 71 1012.6
20260506102510 59 189 0.9 4.3 0.00 0.00 0.00 73 1012.7
20260506102009 60 172 1.7 3.5 0.00 0.00 0.00 73 1012.7
20260506101526 60 160 1.7 3.5 0.00 0.00 0.00 73 1012.8
20260506101015 59 193 1.7 3.5 0.00 0.00 0.00 73 1012.7
20260506100509 59 211 0.9 3.5 0.00 0.00 0.00 73 1012.8
20260506100027 58 318 0.9 3.5 0.00 0.00 0.00 73 1012.9
20260506095511 58 194 0.9 3.5 0.00 0.00 0.00 74 1012.9
20260506095005 58 1 0.9 3.5 0.00 0.00 0.00 75 1012.9
20260506094515 58 186 0.9 1.7 0.00 0.00 0.00 77 1012.9
20260506094009 58 176 0.9 1.7 0.00 0.00 0.00 78 1012.9
20260506093510 58 23 0.9 6.1 0.00 0.00 0.00 77 1012.9
20260506093034 58 25 2.6 6.1 0.00 0.00 0.00 76 1012.8
20260506092507 57 214 0.9 3.5 0.00 0.00 0.00 77 1012.7
20260506092009 57 202 1.7 4.3 0.00 0.00 0.00 77 1012.8
20260506091524 57 11 1.7 4.3 0.00 0.00 0.00 78 1012.9
20260506091009 57 210 1.7 4.3 0.00 0.00 0.00 79 1012.9
20260506090510 57 295 1.7 4.3 0.00 0.00 0.00 78 1013.0
20260506090025 57 3 1.7 4.3 0.00 0.00 0.00 78 1013.0
20260506085508 58 266 1.7 6.1 0.00 0.00 0.00 77 1013.0
20260506085009 58 349 1.7 6.1 0.00 0.00 0.00 76 1013.0
20260506084527 59 198 1.7 4.3 0.00 0.00 0.00 75 1012.9
20260506084012 59 288 1.7 5.2 0.00 0.00 0.00 74 1012.7
20260506083509 59 323 1.7 5.2 0.00 0.00 0.00 74 1012.6
20260506083017 60 303 1.7 3.5 0.00 0.00 0.00 74 1012.5
20260506082511 60 305 0.9 3.5 0.00 0.00 0.00 75 1012.5
20260506082012 60 335 0.9 2.6 0.00 0.00 0.00 76 1012.3
20260506081522 60 315 0.9 2.6 0.00 0.00 0.00 75 1012.3
20260506081013 60 81 0.9 1.7 0.00 0.00 0.00 76 1012.2
20260506080509 60 8 0.9 1.7 0.00 0.00 0.00 77 1012.2
20260506073512 60 313 0.0 2.6 0.00 0.00 0.00 74 1012.2
20260506073027 60 345 0.9 2.6 0.00 0.00 0.00 73 1012.3
20260506072507 61 305 0.9 2.6 0.00 0.00 0.00 75 1012.3
20260506072015 60 18 0.9 2.6 0.00 0.00 0.00 76 1012.3
20260506071518 59 252 0.9 3.5 0.00 0.00 0.00 77 1012.3
20260506071006 58 357 0.9 3.5 0.00 0.00 0.00 79 1012.5
20260506070510 57 29 0.9 1.7 0.00 0.00 0.00 82 1012.5
20260506062507 55 165 0.0 0.9 0.00 0.00 0.00 83 1012.5
20260506062011 55 109 0.0 0.9 0.00 0.00 0.00 83 1012.4
20260506061514 55 106 0.0 1.7 0.00 0.00 0.00 83 1012.4
20260506061007 55 151 0.0 1.7 0.00 0.00 0.00 83 1012.4
20260506060507 55 150 0.0 0.9 0.00 0.00 0.00 82 1012.4
20260506051008 53 120 0.0 0.9 0.00 0.00 0.00 84 1012.1
20260506050507 53 120 0.0 0.9 0.00 0.00 0.00 84 1012.2
20260506045007 52 120 0.0 0.9 0.00 0.00 0.00 85 1012.2
20260506044521 52 120 0.0 0.9 0.00 0.00 0.00 85 1012.2
20260506044003 52 120 0.0 1.7 0.00 0.00 0.00 85 1012.1
20260506043506 52 120 0.0 1.7 0.00 0.00 0.00 85 1012.0
20260506043010 52 120 0.0 0.9 0.00 0.00 0.00 86 1012.0
20260506042504 52 120 0.0 0.9 0.00 0.00 0.00 85 1011.9
20260506042004 52 120 0.0 0.9 0.00 0.00 0.00 85 1012.0
20260506041509 52 120 0.0 0.9 0.00 0.00 0.00 85 1011.9
20260506041004 52 120 0.0 0.9 0.00 0.00 0.00 84 1011.9
20260506040511 52 120 0.0 0.9 0.00 0.00 0.00 84 1011.9
20260506040018 52 120 0.0 0.9 0.00 0.00 0.00 84 1011.9
20260506035508 51 120 0.0 0.9 0.00 0.00 0.00 84 1011.8
20260506035005 51 120 0.0 0.9 0.00 0.00 0.00 84 1011.8
20260506034518 51 120 0.0 1.7 0.00 0.00 0.00 83 1011.8
20260506034009 52 120 0.0 1.7 0.00 0.00 0.00 83 1011.8
20260506033507 52 120 0.0 0.9 0.00 0.00 0.00 83 1012.0
20260506033025 52 120 0.0 0.9 0.00 0.00 0.00 83 1012.1
20260506032504 52 120 0.0 0.9 0.00 0.00 0.00 82 1012.0
20260506032006 52 120 0.0 0.9 0.00 0.00 0.00 82 1011.9
20260506031507 52 120 0.0 0.9 0.00 0.00 0.00 82 1012.0
20260506031005 52 120 0.0 1.7 0.00 0.00 0.00 82 1012.0
20260506030504 52 120 0.0 1.7 0.00 0.00 0.00 81 1012.0
20260506030012 53 90 0.0 0.9 0.00 0.00 0.00 81 1012.1
20260506025511 53 82 0.0 0.9 0.00 0.00 0.00 80 1012.0
20260506025008 53 82 0.0 0.9 0.00 0.00 0.00 80 1012.1
20260506024517 53 82 0.0 0.9 0.00 0.00 0.00 80 1012.2
20260506024010 53 82 0.0 0.9 0.00 0.00 0.00 80 1012.2
20260506023511 53 82 0.0 0.9 0.00 0.00 0.00 80 1012.2
20260506023022 53 82 0.0 0.9 0.00 0.00 0.00 80 1012.3
20260506022509 53 82 0.0 0.9 0.00 0.00 0.00 80 1012.3
20260506022008 53 82 0.0 0.0 0.00 0.00 0.00 79 1012.3
20260506021525 53 82 0.0 0.0 0.00 0.00 0.00 80 1012.3
20260506021004 54 82 0.0 0.9 0.00 0.00 0.00 79 1012.4
20260506020504 54 82 0.0 0.9 0.00 0.00 0.00 79 1012.4
20260506020011 53 82 0.0 0.9 0.00 0.00 0.00 79 1012.3
20260506015505 53 82 0.0 0.0 0.00 0.00 0.00 80 1012.3
20260506015005 53 82 0.0 0.9 0.00 0.00 0.00 80 1012.2
20260506014514 53 82 0.0 0.9 0.00 0.00 0.00 81 1012.2
20260506014007 53 82 0.0 0.9 0.00 0.00 0.00 81 1012.1
20260506013511 53 82 0.0 0.9 0.00 0.00 0.00 81 1012.1
20260506013021 53 77 0.0 1.7 0.00 0.00 0.00 82 1012.1
20260506012509 53 77 0.0 1.7 0.00 0.00 0.00 83 1012.1
20260506012009 53 105 0.0 0.0 0.00 0.00 0.00 82 1012.0
20260506011526 53 105 0.0 0.9 0.00 0.00 0.00 83 1012.1
20260506011008 53 105 0.0 0.9 0.00 0.00 0.00 82 1012.1
20260506010509 52 105 0.0 0.9 0.00 0.00 0.00 83 1012.1
20260506010029 52 90 0.9 0.9 0.00 0.00 0.00 84 1012.1
20260506005507 52 90 0.0 0.9 0.00 0.00 0.00 83 1012.0
20260506005006 52 90 0.0 0.9 0.00 0.00 0.00 83 1012.0
20260506004521 52 90 0.0 0.9 0.00 0.00 0.00 83 1012.0
20260506004006 52 90 0.0 0.9 0.00 0.00 0.00 83 1011.9
20260506003507 52 90 0.0 0.9 0.00 0.00 0.00 83 1012.0
20260506003019 52 90 0.0 0.9 0.00 0.00 0.00 83 1012.0
20260506002509 52 90 0.0 0.9 0.00 0.00 0.00 83 1012.1
20260506002009 52 90 0.0 0.9 0.00 0.00 0.00 83 1012.2
20260506001521 52 90 0.0 0.9 0.00 0.00 0.00 83 1012.2
20260506001007 52 90 0.0 0.9 0.00 0.00 0.00 82 1012.3
20260506000507 52 90 0.0 0.9 0.00 0.00 0.00 82 1012.2
20260506000041 52 90 0.0 0.9 0.00 0.00 0.00 81 1012.2
20260505235507 52 90 0.0 0.9 0.00 0.00 0.00 81 1012.3
20260505235011 52 90 0.0 0.9 0.00 0.00 0.00 81 1012.3
20260505234512 52 90 0.0 0.9 0.00 0.00 0.00 81 1012.3
20260505234005 52 90 0.0 0.9 0.00 0.00 0.00 81 1012.1
20260505233505 52 90 0.0 0.9 0.00 0.00 0.00 81 1012.2
20260505233013 52 90 0.0 0.9 0.00 0.00 0.00 81 1012.4
20260505232505 52 90 0.0 0.9 0.00 0.00 0.00 81 1012.4
20260505232006 52 90 0.0 0.9 0.00 0.00 0.00 82 1012.5
20260505231516 52 90 0.0 0.9 0.00 0.00 0.00 82 1012.5
20260505231006 52 90 0.0 0.9 0.00 0.00 0.00 82 1012.7
20260505230506 51 90 0.0 0.9 0.00 0.00 0.00 82 1012.7
20260505230034 51 63 0.0 0.9 0.00 0.00 0.00 82 1012.7
20260505225510 52 63 0.0 0.9 0.00 0.00 0.00 81 1012.7
20260505225007 52 23 0.0 0.0 0.00 0.00 0.00 81 1012.7
20260505224527 52 23 0.0 0.9 0.00 0.00 0.00 81 1012.7
20260505224010 52 23 0.0 0.9 0.00 0.00 0.00 81 1012.7
20260505223511 52 23 0.0 1.7 0.00 0.00 0.00 81 1012.8
20260505223011 52 23 0.0 1.7 0.00 0.00 0.00 81 1012.7
20260505222508 52 48 0.9 1.7 0.00 0.00 0.00 81 1012.8
20260505222010 52 47 0.0 2.6 0.00 0.00 0.00 81 1012.8
20260505221516 52 48 0.0 2.6 0.00 0.00 0.00 81 1012.8
20260505221006 52 29 0.0 1.7 0.00 0.00 0.00 81 1012.9
20260505220506 53 28 0.0 2.6 0.00 0.00 0.00 81 1012.9
20260505220022 53 79 0.0 3.5 0.00 0.00 0.00 81 1012.9
20260505215508 53 17 0.9 3.5 0.00 0.00 0.00 81 1013.0
20260505215007 53 14 0.9 3.5 0.00 0.00 0.00 81 1013.0
20260505214524 53 36 0.9 2.6 0.00 0.00 0.00 81 1013.0
20260505214001 53 30 0.9 2.6 0.00 0.00 0.00 81 1013.1
20260505213503 52 14 0.9 2.6 0.00 0.00 0.00 82 1013.1
20260505213021 52 44 0.9 2.6 0.00 0.00 0.00 83 1013.1
20260505212506 52 49 0.9 1.7 0.00 0.00 0.00 82 1013.2
20260505212005 52 13 0.0 1.7 0.00 0.00 0.00 82 1013.2
20260505211510 53 33 0.0 3.5 0.00 0.00 0.00 81 1013.2
20260505211004 53 32 0.9 3.5 0.00 0.00 0.00 81 1013.3
20260505210503 53 1 0.0 1.7 0.00 0.00 0.00 80 1013.3
20260505210020 53 39 0.0 1.7 0.00 0.00 0.00 80 1013.4
20260505205504 53 37 0.0 1.7 0.00 0.00 0.00 81 1013.4